Sedalia, MO

11:50 AM CDT on August 27, 2016 (GMT -0500)
Sedalia Memorial

Weather History for KDMO - April, 2014

Change the Weather History Date:

Tuesday, April 15, 2014

  Actual Average Record
Temperature  
Mean Temperature 41 °F 57 °F  
Max Temperature 51 °F 67 °F 86 °F (2002)
Min Temperature 30 °F 46 °F 27 °F (1962)
Degree Days  
Heating Degree Days 24 10  
Month to date heating degree days 192 172  
Since 1 July heating degree days 5105 4374  
Cooling Degree Days 0 1  
Month to date cooling degree days 6 14  
Year to date cooling degree days 6 17  
Moisture  
Dew Point 25 °F    
Average Humidity 56    
Maximum Humidity 78    
Minimum Humidity 33    
Precipitation  
Precipitation 0.00 in 0.15 in 3.88 in (1939)
Month to date precipitation 5.40 1.71  
Year to date precipitation 7.11 7.92  
Sea Level Pressure  
Sea Level Pressure 30.20 in    
Wind  
Wind Speed 7 mph (WSW)    
Max Wind Speed 14 mph    
Max Gust Speed 22 mph    
Visibility 10 miles    
Events Rain    
T = Trace of Precipitation, MM = Missing Value Source: NWS Daily Summary

Daily Weather History Graph

Daily Weather History Graph

Search for Another Location

Airport or City:

Trip Planner

Search our weather history database for the weather conditions in past years. The results will help you decide how hot, cold, wet, or windy it might be!

Date:

Astronomy

Apr. 15, 2014 Rise Set
Actual Time 6:36 AM CDT 7:49 PM CDT
Civil Twilight 6:08 AM CDT 8:17 PM CDT
Nautical Twilight 5:36 AM CDT 8:50 PM CDT
Astronomical Twilight 5:01 AM CDT 9:24 PM CDT
Moon 8:30 PM CDT (4/15) 6:44 AM CDT (4/15)
Length of Visible Light 14h 08m
Length of Day
13h 13m
Full, 100% of the Moon is Illuminated
Apr 15
Full
Apr 22
Last Quarter
Apr 29
New
May 6
First Quarter
May 14
Full

Hourly Weather History & Observations

Time (CDT) Temp. Windchill Dew Point Humidity Pressure Visibility Wind Dir Wind Speed Gust Speed Precip Events Conditions
12:53 AM 34.0 °F 28.8 °F 24.1 °F 67% 30.21 in 10.0 mi NW 5.8 mph - N/A   Overcast
1:53 AM 33.1 °F 28.7 °F 24.1 °F 70% 30.20 in 10.0 mi NW 4.6 mph - N/A   Partly Cloudy
2:53 AM 32.0 °F 28.7 °F 24.1 °F 73% 30.20 in 10.0 mi WNW 3.5 mph - N/A   Mostly Cloudy
3:53 AM 33.1 °F 30.0 °F 23.0 °F 66% 30.20 in 10.0 mi NW 3.5 mph - N/A   Clear
4:53 AM 30.9 °F 26.2 °F 24.1 °F 76% 30.21 in 10.0 mi WNW 4.6 mph - N/A   Clear
5:53 AM 30.9 °F 25.2 °F 23.0 °F 72% 30.22 in 10.0 mi West 5.8 mph - N/A   Clear
6:53 AM 30.0 °F 26.5 °F 23.0 °F 75% 30.24 in 10.0 mi West 3.5 mph - N/A   Clear
7:53 AM 33.1 °F 30.0 °F 26.1 °F 75% 30.26 in 10.0 mi WNW 3.5 mph - N/A   Clear
8:53 AM 36.0 °F - 21.9 °F 57% 30.26 in 10.0 mi Calm Calm - N/A   Clear
9:53 AM 39.9 °F 35.1 °F 23.0 °F 51% 30.27 in 10.0 mi WSW 6.9 mph - N/A   Clear
10:53 AM 41.0 °F 36.4 °F 24.1 °F 51% 30.26 in 10.0 mi WNW 6.9 mph - N/A   Clear
11:53 AM 45.0 °F - 25.0 °F 46% 30.26 in 10.0 mi North - - 0.00 in   Scattered Clouds
12:53 PM 45.0 °F 39.7 °F 24.1 °F 44% 30.24 in 10.0 mi WNW 10.4 mph - 0.00 in Rain Light Rain
1:53 PM 46.9 °F - 25.0 °F 42% 30.23 in 10.0 mi SW 8.1 mph - 0.00 in   Scattered Clouds
2:53 PM 50.0 °F - 23.0 °F 35% 30.21 in 10.0 mi Variable 4.6 mph - N/A   Partly Cloudy
3:53 PM 50.0 °F - 25.0 °F 38% 30.18 in 10.0 mi WSW 8.1 mph - N/A   Clear
4:53 PM 51.1 °F - 26.1 °F 38% 30.16 in 10.0 mi WSW 9.2 mph - N/A   Clear
5:53 PM 51.1 °F - 25.0 °F 36% 30.14 in 10.0 mi SSW 8.1 mph - N/A   Clear
6:53 PM 48.0 °F - 28.0 °F 46% 30.14 in 10.0 mi South 9.2 mph - N/A   Clear
7:53 PM 45.0 °F 41.8 °F 27.0 °F 49% 30.13 in 10.0 mi South 5.8 mph - N/A   Clear
8:53 PM 44.1 °F 40.1 °F 28.9 °F 55% 30.14 in 10.0 mi SE 6.9 mph - N/A   Clear
9:53 PM 44.1 °F 38.6 °F 28.0 °F 53% 30.14 in 10.0 mi SE 10.4 mph - N/A   Clear
10:53 PM 43.0 °F 37.2 °F 27.0 °F 53% 30.13 in 10.0 mi SE 10.4 mph - N/A   Clear
11:53 PM 43.0 °F 36.8 °F 21.9 °F 43% 30.13 in 10.0 mi SSE 11.5 mph - N/A   Clear